Weather History for CWGB - October, 2012

Change the Weather History Date:

Thursday, October 4, 2012

  Actual Average Record
Temperature  
Mean Temperature 52 °F -  
Max Temperature 55 °F - - ()
Min Temperature 48 °F - - ()
Degree Days  
Heating Degree Days 14    
Growing Degree Days 2 (Base 50)    
Moisture  
Dew Point 43 °F    
Average Humidity 71    
Maximum Humidity 83    
Minimum Humidity 53    
Precipitation  
Precipitation 0.00 in - - ()
Sea Level Pressure  
Sea Level Pressure 30.30 in    
Wind  
Wind Speed 12 mph ()    
Max Wind Speed 18 mph    
Max Gust Speed -    
T = Trace of Precipitation, MM = Missing Value Source: Averaged Metar Reports

Daily Weather History Graph

Daily Weather History Graph

Search for Another Location

Airport or City:

Trip Planner

Search our weather history database for the weather conditions in past years. The results will help you decide how hot, cold, wet, or windy it might be!

Date:

Astronomy

Oct. 04, 2012 Rise Set
Actual Time 7:21 AM PDT 6:47 PM PDT
Civil Twilight 6:49 AM PDT 7:19 PM PDT
Nautical Twilight 6:13 AM PDT 7:56 PM PDT
Astronomical Twilight 5:35 AM PDT 8:33 PM PDT
Moon 9:02 PM PDT (10/4) 12:08 PM PDT (10/4)
Length of Visible Light 12h 29m
Length of Day
11h 25m
Waning Gibbous, 81% of the Moon is Illuminated
Oct 4
Waning Gibbous
Oct 8
Last Quarter
Oct 15
New
Oct 21
First Quarter
Oct 29
Full

Hourly Weather History & Observations

Time (PDT) Temp. Dew Point Humidity Pressure Visibility Wind Dir Wind Speed Gust Speed Precip Events Conditions
12:00 AM 53.1 °F 42.8 °F 68% 30.31 in - West 13.8 mph - N/A   Unknown
1:00 AM 53.2 °F 41.4 °F 64% 30.31 in - WSW 16.1 mph - N/A   Unknown
2:00 AM 53.2 °F 40.5 °F 62% 30.30 in - West 15.0 mph - N/A   Unknown
3:00 AM 52.3 °F 40.3 °F 64% 30.30 in - West 15.0 mph - N/A   Unknown
4:00 AM 52.0 °F 39.7 °F 63% 30.30 in - West 18.4 mph - N/A   Unknown
5:00 AM 51 °F 39 °F 53% 30.30 in - West 15.0 mph - -  
5:00 AM 51.3 °F 39.0 °F 63% 30.30 in - West 15.0 mph - N/A   Unknown
6:00 AM 51.1 °F 41.9 °F 71% 30.30 in - West 16.1 mph - N/A   Unknown
7:00 AM 50.7 °F 42.3 °F 73% 30.32 in - West 16.1 mph - N/A   Unknown
8:00 AM 49.1 °F 39.6 °F 70% 30.32 in - WSW 12.7 mph - N/A   Unknown
9:00 AM 50.0 °F 41.0 °F 71% 30.32 in - WSW 12.7 mph - N/A   Unknown
10:00 AM 50.9 °F 41.7 °F 71% 30.33 in - West 12.7 mph - N/A   Unknown
11:00 AM 51 °F 43 °F 65% 30.34 in - West 15.0 mph - -  
11:00 AM 51.1 °F 42.8 °F 73% 30.34 in - West 15.0 mph - N/A   Unknown
12:00 PM 51.6 °F 42.6 °F 71% 30.34 in - West 13.8 mph - N/A   Unknown
1:00 PM 51.8 °F 43.7 °F 74% 30.33 in - West 15.0 mph - N/A   Unknown
2:00 PM 52.5 °F 44.8 °F 75% 30.31 in - West 11.5 mph - N/A   Unknown
3:00 PM 53.2 °F 44.6 °F 72% 30.30 in - West 12.7 mph - N/A   Unknown
4:00 PM 54.1 °F 45.5 °F 73% 30.29 in - West 10.4 mph - N/A   Unknown
5:00 PM 54 °F 46 °F 68% 30.28 in - WSW 11.5 mph - -  
5:00 PM 54.3 °F 46.4 °F 75% 30.28 in - WSW 11.5 mph - N/A   Unknown
6:00 PM 55.0 °F 47.3 °F 75% 30.27 in - West 8.1 mph - N/A   Unknown
7:00 PM 54.1 °F 47.7 °F 79% 30.26 in - WSW 6.9 mph - N/A   Unknown
8:00 PM 52.5 °F 46.0 °F 79% 30.26 in - WNW 6.9 mph - N/A   Unknown
9:00 PM 52.3 °F 45.7 °F 78% 30.26 in - WNW 4.6 mph - N/A   Unknown
10:00 PM 52.5 °F 47.5 °F 83% 30.27 in - West 4.6 mph - N/A   Unknown
11:00 PM 52 °F 46 °F 72% 30.27 in - West 5.8 mph - -  
11:00 PM 52.2 °F 45.7 °F 79% 30.27 in - West 5.8 mph - N/A   Unknown